Wetbulb
69.41 69.83 69.47 68.35 67.77 67.76 68.83 70.35 71.20 72.04 72.11 71.96 72.87 73.39 73.34 72.98 73.24 72.67 72.80 73.11 72.65 72.85 72.66 72.90 72.84 72.78 72.61 72.09 72.39 72.31 70.93 68.54 68.12 70.59 69.37 71.81 73.65 74.65 75.79 76.08 75.97 76.41 75.59
69.05 69.66 69.59 69.51 68.94 67.66 67.94 68.84 70.77 71.76 71.92 72.00 71.85 73.09 73.24 73.00 72.99 72.78 72.37 72.90 72.34 72.39 72.66 71.83 71.91 72.34 72.77 73.11 72.60 72.51 71.93 71.48 70.34 69.94 71.12 71.77 73.63 75.16 75.19 75.25 75.64 75.75 75.64
68.92 68.90 69.29 69.37 69.23 68.94 68.24 68.22 69.54 70.40 71.17 71.57 71.97 71.65 72.84 73.40 72.90 72.96 73.14 73.29 73.03 72.81 72.92 72.64 72.67 72.62 72.45 72.34 72.78 72.55 72.63 72.41 71.47 70.69 71.33 73.12 73.61 74.06 74.95 75.49 75.61 75.81 75.21
68.56 68.44 68.21 68.44 68.90 69.52 69.91 69.25 69.05 69.67 70.22 71.29 71.83 72.26 72.40 73.12 73.49 73.37 73.07 72.91 73.08 73.07 73.27 73.27 73.33 73.12 73.06 73.39 72.77 73.11 73.44 72.90 72.86 72.34 72.15 71.91 72.56 74.03 73.33 72.39 73.39 75.08 73.82
68.60 68.21 68.03 68.52 68.76 68.81 69.14 70.07 69.94 69.43 70.19 70.63 71.74 72.81 73.04 73.13 73.07 73.46 73.46 73.22 72.98 72.95 73.36 73.32 73.73 73.42 71.01 71.86 73.81 73.96 73.51 72.93 72.61 72.18 71.98 71.65 72.14 72.46 72.92 73.60 72.12 72.97 73.56
68.58 68.54 69.07 68.64 68.73 68.19 68.36 68.64 70.00 69.96 69.86 70.16 70.52 71.52 72.65 73.27 68.10 67.59 71.93 73.20 73.25 73.24 72.89 73.28 73.67 71.54 71.37 68.14 67.62 68.16 72.40 74.10 73.21 72.33 72.15 71.47 72.70 72.65 73.58 72.49 71.94 71.39 70.66
67.88 68.84 69.72 69.47 69.12 68.86 68.38 68.39 68.53 69.55 70.13 69.43 70.09 70.90 71.70 73.03 65.52 65.66 67.79 73.51 73.20 73.20 73.33 73.45 72.89 73.21 71.34 73.96 69.14 66.59 66.59 65.98 68.32 74.07 72.87 72.88 73.15 74.58 74.00 73.40 73.04 71.47 71.36
69.04 69.26 69.71 69.88 69.67 69.80 69.29 67.77 68.04 68.75 69.20 69.55 69.71 70.29 70.68 71.48 64.63 63.85 66.08 72.66 73.20 73.18 73.23 73.33 73.12 73.46 73.37 73.40 73.73 73.58 73.58 73.73 72.38 70.41 72.01 73.58 74.56 75.00 74.83 74.18 73.41 72.75 73.11
63.24 65.45 68.75 70.42 69.92 70.11 69.54 69.57 68.58 68.12 68.49 68.94 69.41 70.02 70.23 70.54 62.33 62.68 64.92 72.12 72.44 73.03 73.23 73.53 73.63 73.38 68.57 64.58 72.87 72.93 72.99 73.13 69.00 64.55 65.65 65.54 65.05 64.68 67.53 71.37 70.83 70.67 70.37
60.66 62.29 63.98 65.14 68.07 70.05 70.56 70.71 70.43 69.28 68.59 68.92 69.00 69.13 67.08 70.27 62.07 60.78 63.94 71.57 71.13 71.81 73.14 73.38 65.60 71.18 64.41 61.50 71.15 72.66 71.63 72.34 73.46 73.43 72.91 69.20 65.85 69.51 63.66 69.50 71.63 70.36 70.81
59.94 61.08 62.54 63.82 65.11 67.28 71.23 71.41 71.37 70.95 70.73 69.86 69.50 69.76 69.10 67.97 68.97 59.03 59.42 71.38 70.96 70.69 71.28 72.06 73.43 62.06 60.08 58.11 60.87 72.96 71.75 72.69 71.71 72.34 72.49 72.14 72.26 72.81 73.06 72.21 72.29 71.63 71.72
59.03 60.44 61.42 62.43 63.93 66.12 68.32 72.03 71.42 70.91 70.71 70.64 70.54 70.62 70.84 70.54 62.74 58.90 57.86 60.92 67.45 71.69 71.29 72.49 72.27 60.35 57.87 56.78 58.41 61.59 60.71 61.90 71.05 71.08 71.26 70.84 71.21 71.82 72.46 72.86 74.32 73.28 74.01
57.46 58.56 60.12 61.71 63.30 63.87 64.07 67.26 71.83 71.57 70.93 70.76 70.93 70.80 71.20 72.22 71.36 59.71 56.68 57.70 60.30 70.26 72.88 69.44 63.82 58.41 56.06 58.04 56.98 58.66 57.83 66.02 68.11 68.74 69.73 70.00 71.25 71.91 73.11 73.60 74.47 74.98 74.97
55.24 56.18 58.39 60.17 61.00 62.56 64.46 66.52 70.73 72.46 71.21 71.09 71.00 71.13 71.68 72.34 72.46 72.39 67.13 62.60 59.51 63.24 66.55 69.96 67.27 65.36 63.01 66.17 65.23 62.60 64.95 67.23 68.23 68.81 69.48 70.64 71.38 71.34 71.23 72.66 72.64 72.92 72.60
52.94 54.09 56.11 57.69 59.30 60.80 63.27 65.24 68.26 73.26 71.68 72.13 72.12 72.43 71.83 71.57 72.41 67.88 67.84 70.05 69.33 66.59 67.92 71.25 71.98 71.73 71.16 70.53 70.14 70.37 70.16 68.48 67.25 68.60 69.27 69.59 69.57 70.01 70.16 72.05 72.28 72.56 72.34
50.79 52.05 53.02 54.26 56.56 59.75 62.09 64.13 58.96 56.38 54.06 54.97 56.38 67.28 72.60 63.37 58.96 53.70 52.98 53.70 54.43 52.79 66.02 70.34 70.27 70.86 71.09 71.02 70.36 71.36 71.47 69.10 70.37 70.64 70.32 69.66 69.46 69.64 69.97 71.30 71.98 72.29 72.16
49.66 49.92 51.72 52.46 56.64 58.00 60.77 62.72 63.80 64.35 52.79 50.26 49.89 50.07 51.16 63.24 51.34 50.62 50.26 51.16 49.89 53.70 71.08 70.52 70.82 71.18 70.56 71.01 71.23 71.49 71.30 72.45 72.98 71.38 70.53 70.73 70.59 71.04 69.83 70.43 71.32 71.87 71.75
48.59 49.15 50.58 53.53 56.54 57.42 58.66 61.48 63.62 64.92 65.99 71.52 55.67 54.61 50.07 49.89 48.26 49.53 48.99 50.62 59.80 55.78 70.47 71.69 71.79 71.80 71.71 71.57 71.72 71.87 72.12 73.12 72.90 72.48 72.07 72.10 71.66 70.92 70.33 70.12 70.16 71.18 71.69
47.38 49.18 52.32 54.28 55.44 56.86 59.38 60.18 62.90 65.16 66.72 69.49 72.14 56.60 50.96 47.72 49.17 47.72 45.54 69.91 70.05 68.95 67.84 70.69 72.06 73.02 71.95 72.08 72.62 72.54 73.39 73.44 73.29 73.33 72.93 72.30 71.92 71.52 71.03 72.23 71.50 63.31 66.48
47.96 49.56 51.64 53.79 55.04 57.34 58.04 57.90 60.07 62.56 64.57 68.59 70.46 72.48 63.63 59.06 61.39 62.31 60.89 64.68 70.46 71.30 72.10 69.38 68.23 67.71 68.34 69.11 69.90 71.62 72.07 71.82 72.40 72.53 72.31 71.95 71.66 72.00 71.52 71.39 71.36 70.08 68.30
46.75 47.93 51.08 52.37 53.25 53.52 54.28 54.66 56.36 58.73 61.08 61.90 59.88 55.01 47.54 65.67 67.87 66.49 62.86 60.55 62.18 59.11 58.83 57.02 55.96 56.16 57.10 57.23 59.42 61.63 63.50 63.52 62.59 64.00 65.65 65.70 66.65 67.35 69.31 69.08 69.44 68.93 68.98
45.51 46.89 48.90 49.14 49.95 50.58 50.60 51.26 52.68 53.82 55.32 55.40 54.43 53.23 48.81 56.70 55.02 54.13 54.15 54.11 56.36 55.80 55.82 53.07 51.22 51.73 52.73 52.46 52.80 54.67 55.94 56.08 55.86 57.28 59.90 61.93 63.37 65.00 66.50 67.62 68.00 67.61 67.64
44.24 45.62 47.09 46.19 46.55 46.91 47.91 47.95 48.19 49.09 49.16 48.44 48.66 48.22 47.75 46.92 47.16 47.00 45.91 47.01 47.90 48.22 50.07 52.38 49.47 45.06 45.39 47.25 47.28 47.45 49.73 50.24 50.65 53.78 56.84 59.70 61.64 62.02 62.94 64.03 64.10 65.70 67.17
42.36 42.93 43.33 43.50 43.46 43.22 43.59 43.95 44.25 44.05 45.08 44.36 43.68 43.15 42.96 42.63 42.05 41.68 42.07 43.17 43.37 42.90 45.90 43.92 41.97 41.42 41.87 41.80 42.04 41.32 41.17 43.97 49.21 52.38 54.24 54.65 55.52 55.06 57.30 57.64 58.63 57.81 59.29
40.88 40.56 40.67 40.48 40.77 41.02 41.39 41.56 41.56 41.33 42.45 43.01 42.27 41.56 41.08 41.39 40.79 40.77 40.97 41.28 40.98 40.12 39.86 40.40 42.61 40.73 40.34 40.50 40.71 40.35 36.14 35.95 40.49 41.30 50.66 50.90 49.81 50.89 50.72 51.61 53.11 53.38 53.66
39.71 39.55 39.69 39.71 39.22 39.09 39.15 39.74 39.94 40.05 39.40 39.79 40.14 39.99 40.25 39.68 39.69 39.48 39.33 39.84 38.84 38.43 39.12 39.92 39.36 39.33 39.12 39.38 35.91 34.40 32.85 34.69 38.64 36.63 46.40 46.82 47.01 46.78 47.23 46.76 47.36 48.57 49.81
MSLP
1013.98 1014.57 1015.09 1015.79 1016.43 1016.89 1017.09 1017.16 1017.37 1017.79 1018.09 1018.53 1018.87 1019.30 1019.75 1020.06 1020.29 1020.84 1021.24 1021.53 1021.79 1022.06 1022.24 1022.33 1022.41 1022.60 1022.67 1022.75 1022.82 1022.93 1022.91 1022.93 1022.84 1022.33 1022.15 1021.49 1021.16 1020.77 1020.18 1019.92 1019.60 1019.33 1018.97
1013.15 1013.93 1014.31 1014.88 1015.55 1016.36 1016.71 1016.77 1016.93 1017.26 1017.57 1017.96 1018.51 1018.98 1019.36 1019.66 1019.96 1020.43 1020.86 1021.14 1021.39 1021.53 1021.69 1022.06 1022.12 1022.31 1022.45 1022.56 1022.63 1022.70 1022.62 1022.62 1022.66 1022.37 1022.03 1021.55 1021.13 1020.49 1020.26 1019.97 1019.40 1019.04 1018.89
1012.82 1013.27 1014.11 1014.48 1015.04 1015.44 1015.83 1016.31 1016.58 1016.79 1017.14 1017.49 1018.02 1018.47 1018.86 1019.15 1019.51 1019.83 1020.19 1020.54 1020.81 1021.01 1021.13 1021.40 1021.51 1021.82 1021.96 1022.10 1022.23 1022.25 1022.20 1022.24 1022.37 1022.37 1021.97 1021.62 1021.09 1020.61 1020.18 1019.70 1019.29 1018.81 1018.58
1012.40 1013.23 1013.56 1014.03 1014.31 1014.83 1015.19 1015.48 1015.99 1016.22 1016.60 1017.02 1017.33 1017.65 1018.06 1018.53 1018.91 1019.25 1019.61 1019.91 1020.18 1020.38 1020.55 1020.73 1020.93 1021.17 1021.37 1021.53 1021.71 1021.74 1021.79 1021.85 1021.84 1021.85 1021.60 1021.35 1021.06 1020.54 1020.41 1019.99 1019.22 1018.83 1018.29
1011.86 1012.45 1012.87 1013.43 1013.81 1014.26 1014.78 1015.17 1015.46 1015.79 1015.90 1016.30 1016.73 1016.96 1017.28 1017.74 1018.12 1018.57 1018.99 1019.22 1019.42 1019.71 1019.95 1020.10 1020.25 1020.20 1020.49 1020.78 1021.16 1021.15 1021.32 1021.32 1021.29 1021.25 1021.13 1020.98 1020.64 1020.43 1020.20 1019.77 1019.47 1018.85 1018.23
1011.73 1011.93 1012.40 1012.68 1013.14 1013.46 1013.91 1014.37 1014.83 1015.07 1015.48 1015.70 1016.06 1016.29 1016.58 1016.87 1017.18 1017.58 1018.06 1018.54 1018.77 1018.99 1019.22 1019.42 1019.60 1019.93 1020.20 1020.16 1020.32 1020.38 1020.68 1020.69 1020.66 1020.65 1020.57 1020.41 1020.13 1020.09 1019.73 1019.52 1019.21 1018.81 1018.02
1011.54 1011.78 1011.96 1012.17 1012.66 1012.90 1013.37 1013.83 1014.15 1014.45 1014.63 1015.02 1015.31 1015.69 1015.82 1016.12 1016.38 1016.70 1017.16 1017.64 1017.96 1018.22 1018.48 1018.69 1018.90 1019.14 1019.42 1019.69 1019.75 1019.84 1019.92 1019.91 1019.79 1019.79 1019.85 1019.66 1019.44 1019.33 1019.19 1019.01 1018.92 1018.82 1018.31
1011.69 1011.56 1011.82 1012.07 1012.47 1012.73 1012.97 1013.14 1013.31 1013.57 1013.93 1014.10 1014.46 1014.81 1015.10 1015.25 1015.63 1016.03 1016.36 1016.91 1017.12 1017.20 1017.41 1017.69 1017.94 1018.22 1018.61 1018.92 1019.10 1019.15 1019.10 1018.87 1018.66 1018.93 1019.01 1018.72 1018.62 1018.43 1018.50 1018.51 1018.51 1018.31 1018.05
1012.07 1011.99 1011.94 1012.05 1012.13 1012.20 1012.18 1012.45 1012.68 1012.93 1013.16 1013.22 1013.45 1013.93 1014.33 1014.34 1014.65 1015.07 1015.74 1016.19 1016.29 1016.31 1016.48 1016.66 1016.96 1017.34 1017.67 1018.02 1018.52 1018.45 1018.29 1017.81 1017.69 1017.99 1018.01 1017.93 1017.96 1018.07 1018.13 1018.35 1018.12 1018.06 1017.31
1012.49 1012.42 1012.42 1012.17 1011.93 1011.55 1011.57 1011.80 1012.01 1012.11 1012.20 1012.44 1012.58 1012.87 1013.21 1013.41 1013.75 1014.18 1014.70 1015.13 1015.45 1015.52 1015.61 1015.80 1015.99 1016.27 1016.75 1017.19 1017.68 1017.73 1017.68 1017.07 1017.20 1017.09 1017.37 1017.29 1017.42 1017.20 1017.59 1017.73 1017.48 1017.35 1017.02
1012.58 1012.67 1012.40 1011.94 1011.70 1011.37 1010.95 1010.91 1011.07 1011.35 1011.65 1011.76 1011.73 1011.89 1012.25 1012.54 1012.71 1013.09 1013.69 1014.14 1014.11 1014.43 1014.57 1014.70 1014.97 1015.33 1015.77 1016.16 1016.57 1016.79 1016.51 1016.41 1016.56 1016.67 1016.52 1016.48 1016.43 1016.39 1016.34 1016.36 1016.35 1016.44 1016.23
1012.53 1012.32 1012.22 1011.66 1011.43 1011.25 1010.92 1010.05 1010.15 1010.55 1010.81 1010.81 1010.95 1011.04 1011.18 1011.30 1011.72 1011.99 1012.51 1013.00 1013.10 1013.35 1013.35 1013.55 1013.88 1014.28 1014.72 1015.13 1015.66 1015.61 1015.62 1015.99 1016.30 1016.13 1015.87 1015.57 1015.49 1015.42 1015.28 1015.21 1015.14 1015.21 1015.05
1012.61 1012.32 1011.82 1011.23 1011.45 1011.14 1010.51 1009.82 1009.59 1009.63 1009.70 1009.65 1009.77 1009.77 1009.98 1010.17 1010.59 1010.98 1011.39 1011.79 1012.21 1012.52 1012.48 1012.55 1013.01 1013.47 1013.82 1014.16 1014.53 1014.67 1014.87 1015.48 1015.45 1015.32 1014.94 1014.46 1014.47 1014.43 1014.45 1014.53 1014.46 1014.64 1014.67
1012.45 1012.25 1011.63 1011.77 1010.87 1010.39 1009.75 1009.52 1009.03 1008.40 1008.40 1008.47 1008.45 1008.53 1008.73 1009.15 1009.34 1009.85 1010.61 1011.32 1011.45 1011.88 1011.75 1012.03 1012.24 1012.51 1012.85 1013.08 1013.55 1013.78 1014.16 1014.23 1014.25 1014.15 1013.87 1013.68 1013.90 1014.04 1013.95 1013.95 1013.97 1014.15 1014.19
1012.23 1011.73 1011.68 1011.53 1011.02 1009.67 1009.47 1009.11 1008.41 1006.94 1006.80 1006.88 1006.91 1007.17 1007.39 1007.81 1007.72 1008.27 1008.76 1009.46 1009.87 1010.26 1010.84 1011.35 1011.42 1011.68 1011.98 1012.26 1012.51 1012.68 1012.82 1013.09 1013.26 1013.10 1013.07 1013.07 1013.12 1013.23 1013.05 1013.15 1013.19 1013.34 1013.35
1011.85 1011.56 1011.59 1010.89 1010.52 1009.87 1008.16 1007.76 1006.91 1006.47 1005.99 1006.16 1006.08 1006.27 1006.18 1006.47 1007.10 1007.51 1008.07 1008.45 1008.78 1009.42 1010.60 1010.31 1010.32 1010.59 1010.64 1010.81 1011.17 1011.31 1011.43 1011.61 1011.57 1011.75 1011.88 1012.01 1012.17 1012.26 1012.23 1012.45 1012.44 1012.37 1012.27
1011.96 1011.81 1011.50 1011.49 1011.51 1009.82 1009.40 1008.52 1007.27 1006.49 1005.71 1005.70 1005.90 1006.00 1005.84 1005.75 1006.57 1006.87 1007.26 1007.64 1008.22 1009.52 1009.38 1009.37 1009.30 1009.42 1009.64 1009.84 1009.99 1010.21 1010.28 1010.35 1010.60 1010.87 1010.98 1011.09 1011.24 1011.33 1011.57 1011.62 1011.53 1011.49 1011.32
1013.22 1012.79 1012.20 1012.14 1011.12 1009.54 1009.23 1008.47 1007.69 1006.89 1005.93 1005.31 1005.03 1005.15 1005.35 1005.61 1005.97 1006.27 1006.53 1007.93 1008.81 1009.24 1008.63 1008.52 1008.58 1008.85 1009.00 1009.11 1009.22 1009.38 1009.47 1009.57 1009.71 1009.84 1010.09 1010.29 1010.41 1010.58 1010.73 1010.69 1010.61 1010.48 1010.43
1012.68 1012.37 1012.50 1012.32 1010.07 1009.53 1008.88 1008.16 1007.16 1005.98 1005.22 1005.25 1004.79 1004.98 1004.82 1005.37 1005.68 1006.27 1006.89 1006.96 1007.27 1007.51 1007.73 1007.85 1007.81 1007.90 1008.24 1008.40 1008.50 1008.67 1008.82 1008.88 1008.93 1009.09 1009.34 1009.43 1009.53 1009.71 1009.71 1009.87 1009.97 1009.83 1009.73
1011.71 1011.46 1011.21 1010.27 1009.01 1009.08 1008.15 1007.65 1006.57 1005.52 1005.01 1004.36 1003.87 1004.13 1004.83 1005.01 1005.51 1005.85 1006.25 1006.53 1006.56 1006.62 1006.96 1007.46 1007.54 1007.57 1008.02 1008.17 1008.17 1008.03 1008.10 1008.22 1008.39 1008.42 1008.50 1008.66 1008.50 1008.60 1008.75 1008.83 1008.87 1008.97 1009.13
1011.42 1010.95 1010.35 1009.89 1008.77 1008.53 1008.65 1007.99 1006.98 1005.97 1005.23 1005.50 1005.49 1004.99 1004.74 1004.71 1005.04 1005.24 1005.89 1006.41 1006.21 1006.65 1007.30 1007.66 1008.15 1008.53 1008.57 1008.57 1008.59 1008.75 1008.47 1008.32 1008.31 1008.36 1008.43 1008.61 1008.69 1008.58 1008.54 1008.85 1008.95 1008.97 1008.84
1011.03 1010.76 1010.79 1009.96 1009.18 1009.77 1008.96 1008.03 1006.99 1006.57 1006.19 1006.00 1006.36 1005.89 1005.89 1005.51 1006.03 1006.38 1006.73 1007.14 1007.45 1007.53 1007.54 1007.91 1009.00 1010.45 1011.24 1010.49 1009.92 1009.12 1009.27 1009.25 1009.04 1008.92 1008.90 1009.06 1009.11 1009.26 1009.07 1009.08 1009.09 1008.99 1009.02
1011.07 1010.44 1009.81 1009.65 1010.19 1009.73 1008.23 1008.06 1007.15 1007.09 1006.98 1006.90 1007.10 1007.25 1007.21 1007.51 1007.43 1007.74 1008.04 1008.41 1008.79 1008.81 1008.69 1008.42 1007.51 1005.69 1011.10 1011.51 1011.07 1011.02 1010.87 1010.58 1009.93 1009.69 1009.59 1009.77 1009.50 1009.37 1009.26 1009.17 1009.15 1008.91 1008.57
1010.86 1010.49 1010.48 1010.67 1010.30 1009.75 1008.85 1009.08 1008.38 1008.33 1008.23 1008.13 1008.22 1008.25 1008.58 1008.57 1008.88 1009.15 1009.33 1009.66 1010.16 1009.72 1010.13 1010.44 1010.98 1009.87 1011.31 1011.07 1011.35 1010.44 1011.41 1012.30 1011.61 1010.70 1010.01 1010.22 1010.35 1010.24 1009.89 1009.72 1009.71 1009.59 1009.33
1010.89 1010.81 1010.95 1010.59 1010.61 1010.19 1009.69 1009.91 1009.04 1009.55 1009.16 1009.26 1009.41 1009.35 1009.74 1009.69 1009.96 1010.20 1010.55 1011.14 1011.27 1010.77 1011.48 1011.68 1011.48 1012.26 1013.15 1012.36 1011.24 1011.78 1012.26 1011.41 1011.06 1011.04 1011.52 1011.55 1011.02 1010.99 1011.04 1010.86 1009.95 1010.47 1009.94
1011.05 1011.17 1011.01 1011.05 1010.92 1010.50 1010.61 1010.02 1010.33 1010.11 1010.32 1010.65 1010.55 1010.41 1010.76 1010.43 1010.35 1010.83 1011.56 1011.74 1012.04 1012.45 1012.02 1012.53 1012.58 1013.19 1012.75 1012.40 1013.15 1012.27 1012.81 1011.07 1011.90 1012.07 1011.10 1011.91 1012.07 1011.82 1011.50 1010.87 1011.25 1011.41 1011.19
Wind_Speed
16 14 12 10 9 7 9 10 10 7 6 7 7 8 8 8 7 6 5 4 5 4 4 4 4 3 2 2 1 1 2 3 2 2 2 2 3 5 7 6 6 6 6
16 14 15 12 11 10 9 9 9 9 7 8 7 7 8 9 8 8 8 7 6 6 5 5 6 3 5 3 3 4 3 3 2 4 2 2 3 4 5 6 6 6 6
13 14 12 12 11 13 12 9 8 9 8 7 7 8 8 9 9 9 9 8 8 7 6 6 6 5 5 4 4 4 3 2 3 3 4 2 3 3 5 4 5 6 6
9 9 11 13 13 13 12 12 12 10 10 9 9 9 9 8 9 9 9 9 8 8 7 7 7 6 7 6 5 6 5 4 4 4 5 4 3 3 3 4 7 5 8
12 12 13 11 11 10 10 11 11 11 12 10 10 9 8 8 8 9 9 10 10 9 8 8 8 9 10 9 5 6 5 5 4 5 5 4 5 4 5 3 5 7 7
12 15 13 12 13 12 11 11 11 12 11 10 11 11 11 8 12 15 11 9 10 9 9 8 8 9 10 12 12 11 8 6 6 4 5 6 7 6 3 6 6 6 5
12 12 13 12 13 12 11 10 11 13 11 12 13 12 12 12 14 16 17 10 10 10 10 9 8 8 9 9 10 12 12 13 14 8 8 8 8 6 4 7 5 4 6
4 9 11 12 12 10 8 12 13 11 13 13 13 13 13 12 15 16 17 12 10 11 11 11 11 10 9 9 9 9 9 9 9 8 10 11 9 9 7 7 6 7 6
9 8 5 6 11 11 14 13 11 10 11 12 12 13 14 15 16 18 14 12 12 12 11 11 11 11 11 14 10 10 9 11 8 13 13 13 13 11 9 4 7 6 8
9 7 6 5 6 13 13 13 11 10 12 9 11 12 15 15 15 19 17 11 12 11 11 11 15 15 13 13 11 10 10 12 8 7 6 8 11 11 12 10 6 7 7
4 7 7 6 8 8 11 11 11 12 11 11 12 12 13 14 14 19 20 14 12 11 11 11 10 16 17 15 16 11 13 11 8 7 8 7 7 8 7 8 9 9 7
6 4 5 5 6 7 9 8 12 12 13 13 13 12 11 13 15 16 20 22 16 13 12 10 11 14 16 16 13 17 16 9 7 8 8 9 8 8 7 7 9 9 9
2 4 8 6 6 6 7 8 9 11 11 12 11 11 11 9 10 16 20 22 21 14 12 12 12 13 15 12 15 16 12 8 8 9 9 10 8 7 7 5 6 8 9
3 4 3 7 6 6 4 7 10 11 11 12 11 11 9 9 10 10 10 10 18 14 15 9 9 10 11 10 7 9 8 8 9 9 9 8 6 5 6 5 4 3 4
6 6 4 4 6 7 6 7 10 13 13 11 12 11 10 11 13 13 13 12 12 14 11 10 10 9 9 8 8 8 7 8 9 9 9 9 8 7 8 6 5 5 6
6 6 6 7 7 7 6 9 9 15 12 16 13 12 10 13 12 15 15 15 15 12 7 10 10 10 11 11 12 11 9 10 10 9 9 9 9 8 8 6 6 7 8
8 8 7 6 9 6 8 7 8 9 10 13 17 14 13 11 14 14 16 17 11 12 9 9 10 10 9 10 11 10 10 9 9 9 9 9 9 8 6 7 8 8 9
7 10 8 8 10 6 8 8 7 6 7 9 12 14 17 15 10 16 14 11 3 5 8 9 8 8 8 9 10 9 9 8 8 9 9 9 8 7 6 8 7 9 8
6 5 7 10 7 8 8 9 8 7 6 8 4 2 7 9 9 5 12 9 10 9 10 10 9 8 8 8 7 6 7 8 8 7 8 8 8 7 8 8 7 8 7
7 13 11 8 6 8 5 7 8 7 7 9 8 7 4 5 5 7 7 7 8 6 6 7 2 1 1 1 3 6 7 7 8 8 8 7 8 8 9 9 9 9 8
5 7 12 8 7 6 6 6 6 6 4 5 5 7 12 3 3 2 3 2 3 5 4 5 4 3 2 2 1 1 1 3 4 3 2 1 1 2 1 3 4 4 3
6 6 6 6 5 6 5 5 4 4 3 3 3 7 12 5 6 6 6 6 4 5 6 10 9 9 9 6 5 3 3 3 4 4 3 3 3 4 6 7 8 8 9
5 5 5 5 6 7 4 4 5 4 4 4 5 5 6 6 6 7 8 7 6 6 5 3 2 16 5 5 5 7 7 4 3 3 3 3 3 2 2 3 3 5 6
3 4 3 3 3 3 4 4 5 6 5 5 6 6 6 7 8 10 9 8 6 8 7 8 7 13 9 6 5 7 7 7 7 6 6 5 5 5 5 4 4 5 4
5 5 4 4 4 4 5 4 7 6 7 6 5 7 7 8 9 9 8 8 7 10 10 8 8 12 10 13 13 14 10 11 10 8 8 8 9 11 9 7 7 7 7
6 6 5 4 5 6 6 6 6 7 8 7 7 7 7 7 11 11 9 11 9 9 12 9 12 13 14 11 12 13 7 17 13 15 7 7 8 6 6 9 12 7 10
Wind_Direction
199 202 192 190 189 185 198 195 191 184 184 195 192 187 195 198 193 189 209 208 213 209 209 220 233 227 257 252 228 220 202 179 228 288 266 284 290 321 325 327 325 323 327
198 197 200 192 181 189 205 205 190 193 182 188 187 195 197 199 194 196 202 204 210 230 227 208 234 217 228 228 236 244 238 212 224 270 273 288 263 307 302 308 319 330 318
195 195 201 201 194 201 201 200 200 193 197 191 183 196 203 200 195 205 205 204 204 212 222 224 238 215 239 229 232 245 242 229 219 247 287 275 286 305 316 299 312 310 322
170 193 197 202 202 209 210 196 198 200 196 199 199 199 201 201 198 203 206 208 211 215 216 221 235 222 232 239 236 237 244 248 242 255 274 279 266 285 276 302 322 318 321
177 183 199 205 205 203 204 208 207 202 205 204 201 204 199 200 201 197 203 212 208 213 216 218 228 229 221 227 230 235 224 243 259 267 276 282 290 292 302 309 299 313 310
193 205 206 199 205 203 201 203 202 206 212 200 207 208 203 209 197 191 191 210 216 216 221 225 227 222 234 234 231 238 237 238 249 256 271 272 281 279 278 293 305 319 325
200 206 205 203 208 211 207 204 204 212 203 208 213 211 213 215 201 198 196 207 210 213 218 224 230 231 220 236 235 233 237 231 231 247 261 260 272 273 281 294 287 282 280
273 217 209 205 214 211 205 211 215 208 208 207 212 213 215 215 201 206 201 211 215 216 215 216 220 231 221 223 240 247 244 243 230 224 231 254 255 265 251 272 288 286 281
27 20 9 216 215 210 215 219 218 212 216 211 211 211 216 225 202 204 194 215 224 225 219 220 219 230 221 210 231 249 255 258 236 226 228 236 245 244 255 288 280 290 303
2 352 336 332 299 223 222 221 216 215 223 219 218 214 215 223 203 205 197 216 225 230 228 226 216 226 212 201 214 236 248 257 249 255 248 250 245 250 227 222 256 260 271
4 327 330 336 312 297 240 219 216 220 221 219 222 222 220 216 214 201 197 213 221 224 232 230 226 209 222 211 205 226 235 251 244 243 253 248 248 252 251 227 220 228 237
334 317 317 327 321 300 285 236 211 215 218 220 221 225 224 220 215 201 199 210 211 220 227 229 235 205 214 218 205 232 241 245 254 256 261 261 256 254 253 238 225 222 232
268 305 308 312 285 284 287 274 238 214 218 220 220 219 224 217 220 207 198 208 217 217 228 227 213 210 215 225 218 226 225 230 236 242 247 254 244 251 257 245 238 241 248
282 265 255 271 274 268 287 283 250 227 218 217 216 220 214 211 214 211 205 209 225 220 234 232 220 211 211 222 215 222 223 219 221 231 243 254 254 232 239 229 246 239 248
325 325 292 268 278 308 284 255 292 237 218 211 219 215 203 213 217 204 195 200 206 212 209 226 230 225 232 226 230 231 218 212 219 230 238 244 243 238 242 220 223 223 231
326 333 322 318 321 293 312 303 280 261 242 226 224 207 210 220 191 196 205 208 202 156 191 219 223 226 229 233 238 242 227 217 227 233 234 237 239 238 247 227 223 223 228
330 325 318 307 283 300 297 287 309 299 249 231 237 235 216 209 198 204 207 209 197 155 217 215 224 222 224 230 236 234 236 225 224 226 230 234 232 238 233 237 230 225 227
292 280 287 275 271 297 285 280 276 270 301 256 224 214 226 226 218 213 200 120 141 234 225 228 214 220 226 229 231 234 234 232 220 225 228 232 228 225 226 227 225 221 222
296 283 268 261 265 280 280 285 281 272 273 275 218 208 213 209 204 168 162 212 215 214 212 222 214 213 221 225 228 224 220 225 223 221 225 225 220 214 218 221 216 215 197
296 295 289 288 292 274 287 293 300 301 304 301 291 255 153 123 176 196 203 218 228 232 205 206 173 110 278 252 232 215 215 219 221 224 226 221 223 218 219 200 192 186 197
296 299 295 291 290 296 285 283 295 302 318 326 339 352 304 196 208 142 115 100 182 104 78 74 72 80 94 104 70 322 41 73 63 52 58 60 354 334 348 284 252 266 295
301 295 280 287 309 281 279 285 307 310 334 49 355 16 359 62 71 82 86 80 82 84 108 108 81 35 354 355 0 45 38 44 53 44 29 343 319 293 283 280 273 270 270
295 308 319 334 305 301 346 354 6 358 23 40 40 40 46 52 62 67 67 62 47 38 21 28 126 108 91 339 39 14 3 357 38 21 17 331 312 336 315 277 300 276 257
347 356 351 341 352 353 26 22 28 27 49 63 66 63 59 70 69 69 64 63 63 65 60 62 71 83 76 89 46 64 58 351 343 11 41 46 31 11 25 25 14 6 11
43 56 46 30 19 22 47 35 57 44 41 47 70 80 84 89 80 75 78 85 73 74 67 62 57 64 67 65 77 56 28 46 71 35 25 42 56 45 27 11 41 358 15
39 46 45 47 44 49 53 52 56 57 60 54 54 63 71 83 82 80 70 69 70 62 68 47 57 48 43 52 29 54 67 48 40 28 61 41 36 41 52 66 31 25 23